This is the latest recevied weather packets stored in our database for station/object SV9FBP-13. If no packets are shown the sender has not sent any weather packets the latest 10 day(s).
| Time | Temp. | Humidity | Pressure | Rain* | Wind** | Luminosity | Snow |
|---|---|---|---|---|---|---|---|
| 1788530166 | 32.22° C | 32% | 1007.4 hPa | 0 mm | - | - | - |
| 1788529263 | 32.78° C | 27% | 1007.3 hPa | 0 mm | - | - | - |
| 1788528362 | 32.78° C | 24% | 1007.3 hPa | 0 mm | - | - | - |
| 1788527459 | 32.78° C | 24% | 1007.3 hPa | 0 mm | - | - | - |
| 1788526557 | 32.78° C | 21% | 1007.3 hPa | 0 mm | - | - | - |
| 1788525655 | 33.33° C | 23% | 1007.4 hPa | 0 mm | - | - | - |
| 1788524753 | 33.33° C | 26% | 1007.6 hPa | 0 mm | - | - | - |
| 1788523851 | 32.78° C | 25% | 1007.8 hPa | 0 mm | - | - | - |
| 1788522949 | 32.78° C | 30% | 1007.9 hPa | 0 mm | - | - | - |
| 1788522047 | 32.22° C | 30% | 1008 hPa | 0 mm | - | - | - |
| 1788521145 | 32.22° C | 33% | 1007.9 hPa | 0 mm | - | - | - |
| 1788520243 | 32.22° C | 32% | 1008 hPa | 0 mm | - | - | - |
| 1788519341 | 32.22° C | 37% | 1007.9 hPa | 0 mm | - | - | - |
| 1788518438 | 32.22° C | 36% | 1008.1 hPa | 0 mm | - | - | - |
| 1788517537 | 31.67° C | 36% | 1008.2 hPa | 0 mm | - | - | - |
| 1788516633 | 31.67° C | 40% | 1008 hPa | 0 mm | - | - | - |
| 1788515732 | 31.67° C | 37% | 1008.3 hPa | 0 mm | - | - | - |
| 1788514840 | 32.22° C | 38% | 1008.3 hPa | 0 mm | - | - | - |
| 1788513927 | 31.67° C | 33% | 1008.2 hPa | 0 mm | - | - | - |
| 1788513025 | 31.67° C | 39% | 1008.2 hPa | 0 mm | - | - | - |
| 1788512123 | 31.67° C | 38% | 1008.3 hPa | 0 mm | - | - | - |
| 1788511221 | 31.11° C | 40% | 1008.3 hPa | 0 mm | - | - | - |
| 1788510318 | 31.67° C | 40% | 1008.3 hPa | 0 mm | - | - | - |
| 1788509417 | 31.67° C | 40% | 1008.2 hPa | 0 mm | - | - | - |
| 1788508514 | 31.67° C | 39% | 1008.4 hPa | 0 mm | - | - | - |
* Rain latest hour (hover to see other rain measurements)
** Current wind speed in m/s (hover to see current wind gust speed)